Time,TemperatureF,DewpointF,PressureIn,WindDirection,WindDirectionDegrees,WindSpeedMPH,WindSpeedGustMPH,Humidity,HourlyPrecipIn,Conditions,Clouds,dailyrainin,SoftwareType,DateUTC
2013-02-03 00:00:00,27.0,-99.9,-100.00,WSW,245,3.0,7.0,-999,-99.99,,,-99.99,,2013-02-03 07:00:00,
2013-02-03 00:32:00,27.0,-99.9,-100.00,WSW,245,3.0,7.0,-999,-99.99,,,-99.99,,2013-02-03 07:32:00,
2013-02-03 00:42:00,27.0,-99.9,-100.00,WSW,245,3.0,7.0,-999,-99.99,,,-99.99,,2013-02-03 07:42:00,
2013-02-03 00:53:00,27.0,-99.9,-100.00,WSW,245,3.0,7.0,-999,-99.99,,,-99.99,,2013-02-03 07:53:00,
2013-02-03 02:00:00,28.0,-99.9,-100.00,WSW,257,5.0,8.0,-999,-99.99,,,-99.99,,2013-02-03 09:00:00,
2013-02-03 02:32:00,28.0,-99.9,-100.00,WSW,257,5.0,8.0,-999,-99.99,,,-99.99,,2013-02-03 09:32:00,
2013-02-03 02:42:00,28.0,-99.9,-100.00,WSW,257,5.0,8.0,-999,-99.99,,,-99.99,,2013-02-03 09:42:00,
2013-02-03 02:52:00,28.0,-99.9,-100.00,WSW,257,5.0,8.0,-999,-99.99,,,-99.99,,2013-02-03 09:52:00,
2013-02-03 03:00:00,28.0,-99.9,-100.00,SW,232,3.0,7.0,-999,-99.99,,,-99.99,,2013-02-03 10:00:00,
2013-02-03 03:32:00,28.0,-99.9,-100.00,SW,232,3.0,7.0,-999,-99.99,,,-99.99,,2013-02-03 10:32:00,
2013-02-03 03:42:00,28.0,-99.9,-100.00,SW,232,3.0,7.0,-999,-99.99,,,-99.99,,2013-02-03 10:42:00,
2013-02-03 03:53:00,28.0,-99.9,-100.00,SW,232,3.0,7.0,-999,-99.99,,,-99.99,,2013-02-03 10:53:00,
2013-02-03 04:00:00,28.0,-99.9,-100.00,WSW,255,5.0,8.0,-999,-99.99,,,-99.99,,2013-02-03 11:00:00,
2013-02-03 04:32:00,28.0,-99.9,-100.00,WSW,255,5.0,8.0,-999,-99.99,,,-99.99,,2013-02-03 11:32:00,
2013-02-03 04:42:00,28.0,-99.9,-100.00,WSW,255,5.0,8.0,-999,-99.99,,,-99.99,,2013-02-03 11:42:00,
2013-02-03 04:52:00,28.0,-99.9,-100.00,WSW,255,5.0,8.0,-999,-99.99,,,-99.99,,2013-02-03 11:52:00,
2013-02-03 05:00:00,28.0,-99.9,-100.00,WSW,253,4.0,8.0,-999,-99.99,,,-99.99,,2013-02-03 12:00:00,
2013-02-03 05:33:00,28.0,-99.9,-100.00,WSW,253,4.0,8.0,-999,-99.99,,,-99.99,,2013-02-03 12:33:00,
2013-02-03 05:42:00,28.0,-99.9,-100.00,WSW,253,4.0,8.0,-999,-99.99,,,-99.99,,2013-02-03 12:42:00,
2013-02-03 05:53:00,28.0,-99.9,-100.00,WSW,253,4.0,8.0,-999,-99.99,,,-99.99,,2013-02-03 12:53:00,
2013-02-03 06:00:00,28.0,-99.9,-100.00,WSW,243,3.0,6.0,-999,-99.99,,,-99.99,,2013-02-03 13:00:00,
2013-02-03 06:32:00,28.0,-99.9,-100.00,WSW,243,3.0,6.0,-999,-99.99,,,-99.99,,2013-02-03 13:32:00,
2013-02-03 06:42:00,28.0,-99.9,-100.00,WSW,243,3.0,6.0,-999,-99.99,,,-99.99,,2013-02-03 13:42:00,
2013-02-03 06:53:00,28.0,-99.9,-100.00,WSW,243,3.0,6.0,-999,-99.99,,,-99.99,,2013-02-03 13:53:00,
2013-02-03 07:00:00,27.0,-99.9,-100.00,West,274,3.0,6.0,-999,-99.99,,,-99.99,,2013-02-03 14:00:00,
2013-02-03 07:32:00,27.0,-99.9,-100.00,West,274,3.0,6.0,-999,-99.99,,,-99.99,,2013-02-03 14:32:00,
2013-02-03 07:43:00,27.0,-99.9,-100.00,West,274,3.0,6.0,-999,-99.99,,,-99.99,,2013-02-03 14:43:00,
2013-02-03 07:53:00,27.0,-99.9,-100.00,West,274,3.0,6.0,-999,-99.99,,,-99.99,,2013-02-03 14:53:00,
2013-02-03 08:00:00,27.0,-99.9,-100.00,West,274,3.0,6.0,-999,-99.99,,,-99.99,,2013-02-03 15:00:00,
2013-02-03 08:33:00,27.0,-99.9,-100.00,West,274,3.0,6.0,-999,-99.99,,,-99.99,,2013-02-03 15:33:00,
2013-02-03 08:42:00,27.0,-99.9,-100.00,West,274,3.0,6.0,-999,-99.99,,,-99.99,,2013-02-03 15:42:00,
2013-02-03 08:52:00,27.0,-99.9,-100.00,West,274,3.0,6.0,-999,-99.99,,,-99.99,,2013-02-03 15:52:00,
2013-02-03 09:00:00,27.0,-99.9,-100.00,WSW,253,6.0,8.0,-999,-99.99,,,-99.99,,2013-02-03 16:00:00,
2013-02-03 09:33:00,27.0,-99.9,-100.00,WSW,253,6.0,8.0,-999,-99.99,,,-99.99,,2013-02-03 16:33:00,
2013-02-03 09:42:00,27.0,-99.9,-100.00,WSW,253,6.0,8.0,-999,-99.99,,,-99.99,,2013-02-03 16:42:00,
2013-02-03 09:52:00,27.0,-99.9,-100.00,WSW,253,6.0,8.0,-999,-99.99,,,-99.99,,2013-02-03 16:52:00,
2013-02-03 10:00:00,27.0,-99.9,-100.00,West,272,5.0,12.0,-999,-99.99,,,-99.99,,2013-02-03 17:00:00,
2013-02-03 10:32:00,27.0,-99.9,-100.00,West,272,5.0,12.0,-999,-99.99,,,-99.99,,2013-02-03 17:32:00,
2013-02-03 10:42:00,27.0,-99.9,-100.00,West,272,5.0,12.0,-999,-99.99,,,-99.99,,2013-02-03 17:42:00,
2013-02-03 10:53:00,27.0,-99.9,-100.00,West,272,5.0,12.0,-999,-99.99,,,-99.99,,2013-02-03 17:53:00,
2013-02-03 11:00:00,29.0,-99.9,-100.00,WNW,285,5.0,15.0,-999,-99.99,,,-99.99,,2013-02-03 18:00:00,
2013-02-03 11:33:00,29.0,-99.9,-100.00,WNW,285,5.0,15.0,-999,-99.99,,,-99.99,,2013-02-03 18:33:00,
2013-02-03 11:42:00,29.0,-99.9,-100.00,WNW,285,5.0,15.0,-999,-99.99,,,-99.99,,2013-02-03 18:42:00,
2013-02-03 11:52:00,29.0,-99.9,-100.00,WNW,285,5.0,15.0,-999,-99.99,,,-99.99,,2013-02-03 18:52:00,
2013-02-03 12:00:00,32.0,-99.9,-100.00,WNW,284,4.0,12.0,-999,-99.99,,,-99.99,,2013-02-03 19:00:00,
2013-02-03 12:33:00,32.0,-99.9,-100.00,WNW,284,4.0,12.0,-999,-99.99,,,-99.99,,2013-02-03 19:33:00,
2013-02-03 12:42:00,32.0,-99.9,-100.00,WNW,284,4.0,12.0,-999,-99.99,,,-99.99,,2013-02-03 19:42:00,
2013-02-03 12:52:00,32.0,-99.9,-100.00,WNW,284,4.0,12.0,-999,-99.99,,,-99.99,,2013-02-03 19:52:00,
2013-02-03 13:00:00,31.0,-99.9,-100.00,NW,313,6.0,21.0,-999,-99.99,,,-99.99,,2013-02-03 20:00:00,
2013-02-03 13:33:00,31.0,-99.9,-100.00,NW,313,6.0,21.0,-999,-99.99,,,-99.99,,2013-02-03 20:33:00,
2013-02-03 13:42:00,31.0,-99.9,-100.00,NW,313,6.0,21.0,-999,-99.99,,,-99.99,,2013-02-03 20:42:00,
2013-02-03 13:52:00,31.0,-99.9,-100.00,NW,313,6.0,21.0,-999,-99.99,,,-99.99,,2013-02-03 20:52:00,
2013-02-03 14:00:00,31.0,-99.9,-100.00,WNW,288,6.0,17.0,-999,-99.99,,,-99.99,,2013-02-03 21:00:00,
2013-02-03 14:33:00,31.0,-99.9,-100.00,WNW,288,6.0,17.0,-999,-99.99,,,-99.99,,2013-02-03 21:33:00,
2013-02-03 14:43:00,31.0,-99.9,-100.00,WNW,288,6.0,17.0,-999,-99.99,,,-99.99,,2013-02-03 21:43:00,
2013-02-03 14:52:00,31.0,-99.9,-100.00,WNW,288,6.0,17.0,-999,-99.99,,,-99.99,,2013-02-03 21:52:00,
2013-02-03 15:00:00,31.0,-99.9,-100.00,WNW,284,7.0,17.0,-999,-99.99,,,-99.99,,2013-02-03 22:00:00,
2013-02-03 15:32:00,31.0,-99.9,-100.00,WNW,284,7.0,17.0,-999,-99.99,,,-99.99,,2013-02-03 22:32:00,
2013-02-03 15:42:00,31.0,-99.9,-100.00,WNW,284,7.0,17.0,-999,-99.99,,,-99.99,,2013-02-03 22:42:00,
2013-02-03 15:52:00,31.0,-99.9,-100.00,WNW,284,7.0,17.0,-999,-99.99,,,-99.99,,2013-02-03 22:52:00,
2013-02-03 16:00:00,30.0,-99.9,-100.00,West,279,7.0,15.0,-999,-99.99,,,-99.99,,2013-02-03 23:00:00,
2013-02-03 16:33:00,30.0,-99.9,-100.00,West,279,7.0,15.0,-999,-99.99,,,-99.99,,2013-02-03 23:33:00,
2013-02-03 16:42:00,30.0,-99.9,-100.00,West,279,7.0,15.0,-999,-99.99,,,-99.99,,2013-02-03 23:42:00,
2013-02-03 16:52:00,30.0,-99.9,-100.00,West,279,7.0,15.0,-999,-99.99,,,-99.99,,2013-02-03 23:52:00,
2013-02-03 17:00:00,30.0,-99.9,-100.00,WNW,302,6.0,16.0,-999,-99.99,,,-99.99,,2013-02-04 00:00:00,
2013-02-03 17:32:00,30.0,-99.9,-100.00,WNW,302,6.0,16.0,-999,-99.99,,,-99.99,,2013-02-04 00:32:00,
2013-02-03 17:42:00,30.0,-99.9,-100.00,WNW,302,6.0,16.0,-999,-99.99,,,-99.99,,2013-02-04 00:42:00,
2013-02-03 17:52:00,30.0,-99.9,-100.00,WNW,302,6.0,16.0,-999,-99.99,,,-99.99,,2013-02-04 00:52:00,
2013-02-03 18:00:00,27.0,-99.9,-100.00,NW,322,8.0,16.0,-999,-99.99,,,-99.99,,2013-02-04 01:00:00,
2013-02-03 18:32:00,27.0,-99.9,-100.00,NW,322,8.0,16.0,-999,-99.99,,,-99.99,,2013-02-04 01:32:00,
2013-02-03 18:42:00,27.0,-99.9,-100.00,NW,322,8.0,16.0,-999,-99.99,,,-99.99,,2013-02-04 01:42:00,
2013-02-03 18:52:00,27.0,-99.9,-100.00,NW,322,8.0,16.0,-999,-99.99,,,-99.99,,2013-02-04 01:52:00,
2013-02-03 19:00:00,23.0,-99.9,-100.00,NW,308,7.0,13.0,-999,-99.99,,,-99.99,,2013-02-04 02:00:00,
2013-02-03 19:32:00,23.0,-99.9,-100.00,NW,308,7.0,13.0,-999,-99.99,,,-99.99,,2013-02-04 02:32:00,
2013-02-03 19:42:00,23.0,-99.9,-100.00,NW,308,7.0,13.0,-999,-99.99,,,-99.99,,2013-02-04 02:42:00,
2013-02-03 19:52:00,23.0,-99.9,-100.00,NW,308,7.0,13.0,-999,-99.99,,,-99.99,,2013-02-04 02:52:00,
2013-02-03 20:00:00,22.0,-99.9,-100.00,WNW,291,7.0,14.0,-999,-99.99,,,-99.99,,2013-02-04 03:00:00,
2013-02-03 20:32:00,22.0,-99.9,-100.00,WNW,291,7.0,14.0,-999,-99.99,,,-99.99,,2013-02-04 03:32:00,
2013-02-03 20:42:00,22.0,-99.9,-100.00,WNW,291,7.0,14.0,-999,-99.99,,,-99.99,,2013-02-04 03:42:00,
2013-02-03 20:52:00,22.0,-99.9,-100.00,WNW,291,7.0,14.0,-999,-99.99,,,-99.99,,2013-02-04 03:52:00,
2013-02-03 21:00:00,25.0,-99.9,-100.00,NW,308,6.0,13.0,-999,-99.99,,,-99.99,,2013-02-04 04:00:00,
2013-02-03 21:32:00,25.0,-99.9,-100.00,NW,308,6.0,13.0,-999,-99.99,,,-99.99,,2013-02-04 04:32:00,
2013-02-03 21:42:00,25.0,-99.9,-100.00,NW,308,6.0,13.0,-999,-99.99,,,-99.99,,2013-02-04 04:42:00,
2013-02-03 21:52:00,25.0,-99.9,-100.00,NW,308,6.0,13.0,-999,-99.99,,,-99.99,,2013-02-04 04:52:00,
2013-02-03 22:00:00,24.0,-99.9,-100.00,NW,304,7.0,14.0,-999,-99.99,,,-99.99,,2013-02-04 05:00:00,
2013-02-03 22:33:00,24.0,-99.9,-100.00,NW,304,7.0,14.0,-999,-99.99,,,-99.99,,2013-02-04 05:33:00,
2013-02-03 22:42:00,24.0,-99.9,-100.00,NW,304,7.0,14.0,-999,-99.99,,,-99.99,,2013-02-04 05:42:00,
2013-02-03 22:52:00,24.0,-99.9,-100.00,NW,304,7.0,14.0,-999,-99.99,,,-99.99,,2013-02-04 05:52:00,
2013-02-03 23:00:00,23.0,-99.9,-100.00,NW,311,6.0,13.0,-999,-99.99,,,-99.99,,2013-02-04 06:00:00,
2013-02-03 23:32:00,23.0,-99.9,-100.00,NW,311,6.0,13.0,-999,-99.99,,,-99.99,,2013-02-04 06:32:00,
2013-02-03 23:42:00,23.0,-99.9,-100.00,NW,311,6.0,13.0,-999,-99.99,,,-99.99,,2013-02-04 06:42:00,
2013-02-03 23:52:00,23.0,-99.9,-100.00,NW,311,6.0,13.0,-999,-99.99,,,-99.99,,2013-02-04 06:52:00,